weather.gov     
National Weather Service

Regional Weather Roundup
NWS Homepage
This page is being discontinued on March 12, 2014.
The same data is available at this site. Please update your bookmarks.
Thank you, and we apologize for the inconvenience.
Please send an email to SR-SRH.Webmaster@noaa.gov with any concerns.


Current Version
Previous Version:    01  02  03  04  05  06  07  08  09  10  11  12  13  14  15  16  17  18  19  20  21  22  23  24  25  26  
[Printable]
365
ASUS44 KLZK 211205
RWRLZK

WEATHER ROUNDUP FOR ARKANSAS
NATIONAL WEATHER SERVICE LITTLE ROCK AR
600 AM CST SUN DEC 21 2014

NOTE: "FAIR" INDICATES FEW OR NO CLOUDS BELOW 12,000 FEET WITH NO
SIGNIFICANT WEATHER AND/OR OBSTRUCTIONS TO VISIBILITY.

ARZ001-003-010-029-211300-
NORTHWEST ARKANSAS

CITY           SKY/WX    TMP DP  RH WIND       PRES   REMARKS
FAYETTEVILLE   CLOUDY    41  39  93 SE5       30.12S
6HR MIN TEMP:  40; 6HR MAX TEMP:  42;

FORT SMITH     CLOUDY    44  40  85 E6        30.14S
6HR MIN TEMP:  44; 6HR MAX TEMP:  45;

HARRISON       CLOUDY    39  38  96 SE7       30.14S FOG
6HR MIN TEMP:  39; 6HR MAX TEMP:  40;

BENTONVILLE    CLOUDY    43  37  81 S7        30.11F
6HR MIN TEMP:  41; 6HR MAX TEMP:  43;

ROGERS         CLOUDY    41  39  93 SE8       30.11F
6HR MIN TEMP:  41; 6HR MAX TEMP:  41; 6HR PCP: TRACE;

SILOAM SPGS    CLOUDY    43  36  75 SE6       30.12S
6HR MIN TEMP:  43; 6HR MAX TEMP:  43;

HIGHFILL       CLOUDY    42  40  92 SE7       30.10F
6HR MIN TEMP:  42; 6HR MAX TEMP:  42;

SPRINGDALE     CLOUDY    41  39  93 CALM      30.13  FOG
$$

ARZ004-005-016-211300-
NORTH CENTRAL ARKANSAS

CITY           SKY/WX    TMP DP  RH WIND       PRES   REMARKS
BATESVILLE     CLOUDY    39  34  81 E3        30.21S
6HR MIN TEMP:  36; 6HR MAX TEMP:  39;

FLIPPIN        CLOUDY    39  34  81 CALM      30.17R
6HR MIN TEMP:  39; 6HR MAX TEMP:  39;

MTN HOME       CLOUDY    38  36  92 SE7       30.16F
6HR MIN TEMP:  38; 6HR MAX TEMP:  39;

$$

ARZ040-041-211300-
WEST CENTRAL ARKANSAS

CITY           SKY/WX    TMP DP  RH WIND       PRES   REMARKS
MENA           CLOUDY    45  41  87 E6        30.14S
MOUNT IDA      CLOUDY    37  36  96 CALM      30.15R FOG
6HR MIN TEMP:  34; 6HR MAX TEMP:  43;

$$

ARZ009-017-025-026-028-211300-
NORTHEAST ARKANSAS

CITY           SKY/WX    TMP DP  RH WIND       PRES   REMARKS
CORNING        CLOUDY    37  32  81 SE8       30.23S
JONESBORO      MOCLDY    34  32  92 NE6       30.23R WCI  29
6HR MIN TEMP:  32; 6HR MAX TEMP:  37;

NEWPORT        CLOUDY    39  34  82 E3        30.23S
6HR MIN TEMP:  37; 6HR MAX TEMP:  41;

WALNUT RIDGE   CLOUDY    37  30  75 E9        30.21S
6HR MIN TEMP:  37; 6HR MAX TEMP:  41;

BLYTHEVILLE    MOCLDY    29  27  92 NE6       30.24R WCI  23
6HR MIN TEMP:  29; 6HR MAX TEMP:  33;

$$

ARZ022-023-033-042-044-211300-
CENTRAL ARKANSAS

CITY           SKY/WX    TMP DP  RH WIND       PRES   REMARKS
LITTLE ROCK    CLEAR     34  31  88 CALM      30.20S FOG
6HR MIN TEMP:  33; 6HR MAX TEMP:  38;

N LITTLE ROCK    N/A     35  35  97 NE6       30.20S WCI  30
6HR MIN TEMP:  35; 6HR MAX TEMP:  38;

SEARCY         CLOUDY    33  32  96 N5        30.22S WCI  29
6HR MIN TEMP:  31; 6HR MAX TEMP:  38;

HOT SPRINGS    MOCLDY    33  32  96 CALM      30.19R FOG
6HR MIN TEMP:  33; 6HR MAX TEMP:  39;

RUSSELLVILLE   CLOUDY    41  35  79 VRB3      30.19R
6HR MIN TEMP:  41; 6HR MAX TEMP:  44;

CLINTON        CLOUDY    39  37  93 CALM      30.21S FOG
$$

ARZ036-211300-
EAST ARKANSAS

CITY           SKY/WX    TMP DP  RH WIND       PRES   REMARKS
WEST MEMPHIS   CLEAR     32  30  92 NE3       30.20S
6HR MIN TEMP:  32; 6HR MAX TEMP:  38;

$$

ARZ050-053-066-070-073-211300-
SOUTHWEST ARKANSAS

CITY           SKY/WX    TMP DP  RH WIND       PRES   REMARKS
ARKADELPHIA    FAIR      32  32 100 CALM      30.20S FOG
6HR MIN TEMP:  31; 6HR MAX TEMP:  36;

CAMDEN         CLEAR     28  27  93 CALM      30.19R FOG
TEXARKANA      CLOUDY    36  36 100 E5        30.16F FOG
6HR MIN TEMP:  35; 6HR MAX TEMP:  43;

EL DORADO      CLEAR     32  31  96 N3        30.17S FOG
6HR MIN TEMP:  32; 6HR MAX TEMP:  38;

DE QUEEN       CLOUDY    43  39  86 E6        30.15F
6HR MIN TEMP:  43; 6HR MAX TEMP:  47;

$$

ARZ056-057-069-211300-
SOUTHEAST ARKANSAS

CITY           SKY/WX    TMP DP  RH WIND       PRES   REMARKS
PINE BLUFF     FOG       31  30  96 CALM      30.19S VSB 1/2
6HR MIN TEMP:  30; 6HR MAX TEMP:  37;

STUTTGART        N/A     34  30  86 N6        30.20S WCI  29
6HR MIN TEMP:  34; 6HR MAX TEMP:  37;

MONTICELLO     CLEAR     33  31  92 CALM      30.17S FOG
6HR MIN TEMP:  31; 6HR MAX TEMP:  39;


$$






U.S. Dept. of Commerce
NOAA National Weather Service
1325 East West Highway
Silver Spring, MD 20910
E-mail: w-nws.webmaster@noaa.gov
Page last modified: May 16, 2007
NATIONAL WEATHER SERVICE: for Safety, for Work, for Fun - FOR LIFE